Bluefield, WV

10:07 AM EDT on September 19, 2017 (GMT -0400)
Mercer County

Weather History for KBLF - September, 2013

Change the Weather History Date:

Thursday, September 19, 2013

  Actual Average Record
Temperature  
Mean Temperature 66 °F 65 °F  
Max Temperature 68 °F 74 °F 87 °F (2005)
Min Temperature 63 °F 56 °F 40 °F (1973)
Degree Days  
Heating Degree Days 0 3  
Month to date heating degree days 22 26  
Since 1 July heating degree days 28 32  
Cooling Degree Days 1 3  
Month to date cooling degree days 94 78  
Year to date cooling degree days 896 812  
Growing Degree Days 15 (Base 50)    
Moisture  
Dew Point 60 °F    
Average Humidity 84    
Maximum Humidity 87    
Minimum Humidity 81    
Precipitation  
Precipitation 0.09 in 0.10 in 0.73 in (1986)
Month to date precipitation 0.97 1.97  
Year to date precipitation 31.19 30.36  
Snow  
Snow 0.00 in - - ()
Month to date snowfall 0.0  
Since 1 July snowfall 0.0  
Since 1 September snowfall 0.0  
Snow Depth 0.00 in    
Sea Level Pressure  
Sea Level Pressure 30.16 in    
Wind  
Wind Speed 4 mph (WSW)    
Max Wind Speed 10 mph    
Max Gust Speed 13 mph    
Visibility 6 miles    
Events Rain    
T = Trace of Precipitation, MM = Missing Value Source: NWS Daily Summary

Daily Weather History Graph

Daily Weather History Graph

Search for Another Location

Airport or City:

Trip Planner

Search our weather history database for the weather conditions in past years. The results will help you decide how hot, cold, wet, or windy it might be!

Date:

Astronomy

Sep. 19, 2013 Rise Set
Actual Time 7:10 AM EDT 7:26 PM EDT
Civil Twilight 6:44 AM EDT 7:52 PM EDT
Nautical Twilight 6:13 AM EDT 8:22 PM EDT
Astronomical Twilight 5:42 AM EDT 8:53 PM EDT
Moon 7:25 PM EDT 7:16 AM EDT
Length of Visible Light 13h 07m
Length of Day
12h 15m
Full, 100% of the Moon is Illuminated
Sep 19
Full
Sep 26
Last Quarter
Oct 4
New
Oct 11
First Quarter
Oct 18
Full

Hourly Weather History & Observations

Time (EDT) Temp. Dew Point Humidity Pressure Visibility Wind Dir Wind Speed Gust Speed Precip Events Conditions
12:39 AM 62.6 °F 57.2 °F 82% 30.23 in 10.0 mi West 3.5 mph - N/A   Overcast
12:48 AM 62.6 °F 57.2 °F 82% 30.23 in 10.0 mi Calm Calm - N/A   Overcast
12:52 AM 63.0 °F 57.0 °F 81% 30.15 in 10.0 mi Calm Calm - N/A   Overcast
1:11 AM 62.6 °F 57.2 °F 82% 30.23 in 10.0 mi Calm Calm - N/A   Overcast
1:52 AM 63.0 °F 57.0 °F 81% 30.13 in 10.0 mi Calm Calm - N/A   Overcast
2:52 AM 63.0 °F 57.0 °F 81% 30.13 in 10.0 mi Calm Calm - N/A   Overcast
3:07 AM 62.6 °F 57.2 °F 82% 30.22 in 10.0 mi WSW 3.5 mph - N/A   Overcast
3:52 AM 63.0 °F 57.0 °F 81% 30.13 in 10.0 mi West 3.5 mph - N/A   Overcast
4:52 AM 63.0 °F 57.0 °F 81% 30.12 in 10.0 mi WSW 3.5 mph - N/A   Overcast
5:52 AM 63.0 °F 57.0 °F 81% 30.12 in 10.0 mi WSW 3.5 mph - N/A   Overcast
6:26 AM 62.6 °F 57.2 °F 82% 30.20 in 10.0 mi WSW 4.6 mph - N/A   Overcast
6:52 AM 63.0 °F 57.9 °F 84% 30.13 in 10.0 mi WSW 3.5 mph - N/A   Overcast
7:52 AM 63.0 °F 57.9 °F 84% 30.14 in 7.0 mi West 3.5 mph - 0.00 in   Overcast
8:43 AM 62.6 °F 59.0 °F 88% 30.23 in 2.5 mi West 4.6 mph - 0.01 in Rain Light Rain
8:52 AM 63.0 °F 59.0 °F 87% 30.15 in 2.0 mi WSW 4.6 mph - 0.02 in Rain Light Rain
9:06 AM 62.6 °F 59.0 °F 88% 30.23 in 3.0 mi West 3.5 mph - 0.00 in   Overcast
9:38 AM 62.6 °F 59.0 °F 88% 30.24 in 4.0 mi West 4.6 mph - 0.00 in   Overcast
9:52 AM 64.0 °F 59.0 °F 84% 30.17 in 4.0 mi WSW 5.8 mph - 0.00 in   Haze
10:52 AM 64.9 °F 60.1 °F 84% 30.17 in 6.0 mi West 3.5 mph - 0.00 in   Haze
11:28 AM 66.2 °F 60.8 °F 83% 30.24 in 6.0 mi WSW 6.9 mph - N/A   Haze
11:52 AM 66.0 °F 61.0 °F 84% 30.17 in 7.0 mi NW 3.5 mph - N/A   Overcast
12:34 PM 66.2 °F 60.8 °F 83% 30.24 in 2.0 mi Calm Calm - 0.01 in Rain Light Rain
12:47 PM 66.2 °F 60.8 °F 83% 30.24 in 3.0 mi West 6.9 mph - 0.01 in   Haze
12:52 PM 64.9 °F 61.0 °F 87% 30.16 in 3.0 mi WNW 5.8 mph - 0.01 in   Overcast
1:16 PM 64.4 °F 60.8 °F 88% 30.23 in 3.0 mi West 5.8 mph - 0.00 in Rain Light Rain
1:52 PM 66.0 °F 61.0 °F 84% 30.14 in 3.0 mi West 6.9 mph - 0.01 in Rain Light Rain
2:04 PM 66.2 °F 62.6 °F 88% 30.22 in 4.0 mi West 6.9 mph - 0.00 in Rain Light Rain
2:36 PM 66.2 °F 62.6 °F 88% 30.21 in 9.0 mi West 6.9 mph - 0.00 in   Overcast
2:52 PM 66.9 °F 61.0 °F 81% 30.13 in 10.0 mi West 5.8 mph - 0.00 in   Overcast
3:52 PM 66.9 °F 61.0 °F 81% 30.12 in 10.0 mi West 4.6 mph - N/A   Overcast
4:52 PM 66.0 °F 62.1 °F 87% 30.12 in 5.0 mi West 6.9 mph - 0.05 in Rain Light Rain
5:52 PM 68.0 °F 63.0 °F 84% 30.10 in 10.0 mi WSW 5.8 mph - 0.00 in   Overcast
6:45 PM 66.2 °F 62.6 °F 88% 30.18 in 10.0 mi WSW 4.6 mph - N/A   Overcast
6:52 PM 66.9 °F 62.1 °F 84% 30.09 in 10.0 mi West 4.6 mph - N/A   Overcast
7:25 PM 66.2 °F 62.6 °F 88% 30.17 in 9.0 mi WSW 3.5 mph - N/A   Mostly Cloudy
7:52 PM 66.0 °F 61.0 °F 84% 30.09 in 7.0 mi West 4.6 mph - N/A   Mostly Cloudy
8:00 PM 66.2 °F 62.6 °F 88% 30.17 in 6.0 mi West 4.6 mph - N/A   Mostly Cloudy
8:29 PM 64.4 °F 60.8 °F 88% 30.17 in 4.0 mi SW 3.5 mph - N/A   Overcast
8:36 PM 64.4 °F 60.8 °F 88% 30.17 in 1.8 mi Calm Calm - N/A   Overcast
8:44 PM 64.4 °F 60.8 °F 88% 30.17 in 1.2 mi Calm Calm - N/A   Overcast
8:46 PM 64.4 °F 60.8 °F 88% 30.17 in 1.0 mi Calm Calm - N/A   Overcast
8:52 PM 64.9 °F 60.1 °F 84% 30.10 in 1.0 mi Calm Calm - N/A   Haze
9:03 PM 64.4 °F 60.8 °F 88% 30.17 in 1.5 mi Calm Calm - N/A   Overcast
9:08 PM 64.4 °F 60.8 °F 88% 30.17 in 3.0 mi Calm Calm - N/A   Overcast
9:52 PM 66.0 °F 61.0 °F 84% 30.09 in 4.0 mi WSW 4.6 mph - N/A   Haze
10:52 PM 66.0 °F 61.0 °F 84% 30.08 in 6.0 mi West 4.6 mph - N/A   Haze
11:25 PM 64.4 °F 60.8 °F 88% 30.16 in 2.5 mi WSW 5.8 mph - N/A   Overcast
11:34 PM 64.4 °F 60.8 °F 88% 30.16 in 4.0 mi WSW 5.8 mph - N/A   Overcast
11:52 PM 66.0 °F 61.0 °F 84% 30.08 in 5.0 mi WSW 4.6 mph - N/A   Haze